[[{"header":{"parameterUnit":"m.s-1","parameterCategory":1,"la1":30.2992,"la2":30.254,"lo1":-89.0895,"lo2":-89.0443,"dy":0.0025,"dx":0.0025,"nx":19,"ny":19,"refTime":"2026-05-19T03:00:00:Z","depth":0,"parameterNumber":2,"parameterNumberName":"U-component_of_WINDS"},"data":[0,0,0,-2.8361,-2.8361,-2.8376,-2.8376,-2.8417,-2.8418,0,0,0,0,0,0,0,0,0,0,0,-2.8369,-2.837,-2.8361,-2.8362,-2.8376,-2.8376,-2.8417,-2.8418,0,0,0,0,0,0,0,0,0,0,0,-2.8368,-2.8369,-2.837,-2.8362,-2.8376,-2.8376,-2.8417,-2.8398,0,0,0,0,0,0,0,0,0,0,-2.838,-2.8399,-2.8369,-2.837,-2.8362,-2.8376,-2.8376,-2.8397,-2.8399,-2.842,0,-2.844,0,-2.843,-2.8422,-2.8422,0,0,0,-2.8352,-2.8397,-2.839,-2.837,-2.8362,-2.8376,-2.8367,-2.8398,-2.8401,-2.8423,-2.844,-2.8441,-2.843,-2.8422,-2.8422,-2.8569,-2.857,0,0,-2.8352,-2.8378,-2.8388,-2.8393,-2.8391,-2.8367,-2.8368,-2.8399,-2.842,-2.8441,-2.8442,-2.8431,-2.8423,-2.8423,-2.8568,-2.8569,0,0,0,-2.8355,-2.8378,-2.837,-2.8391,-2.8392,-2.8367,-2.8368,-2.8419,-2.8414,-2.8442,-2.8432,-2.8423,-2.8424,-2.8566,-2.8568,-2.8648,0,0,0,-2.8354,-2.838,-2.837,-2.8386,-2.8392,-2.8406,-2.8388,-2.8412,-2.8415,-2.8431,-2.8423,-2.8424,-2.8565,-2.8567,-2.8643,-2.8681,0,0,0,-2.8364,-2.8381,-2.8387,-2.8388,-2.8395,-2.8405,-2.8401,-2.8412,-2.8409,-2.8422,-2.8424,-2.8564,-2.8567,-2.8639,-2.8674,-2.8727,0,0,0,-2.8381,-2.8458,-2.8389,-2.8472,-2.8395,-2.8454,-2.8401,-2.8444,-2.8465,-2.8423,-2.8565,-2.8568,-2.8638,-2.8669,-2.8723,-2.8776,-2.8801,0,0,-2.8493,-2.8473,-2.8519,-2.8458,-2.8536,-2.845,-2.854,-2.8535,-2.8512,-2.8551,-2.8555,-2.8645,-2.8673,-2.8726,-2.8933,-2.8953,0,0,0,-2.8564,-2.8597,-2.8613,-2.8634,-2.8632,-2.8633,-2.8611,-2.861,-2.8642,-2.8538,-2.8678,-2.8695,-2.8724,-2.8748,-2.8765,-2.8789,-2.8581,-2.858,-2.858,-2.8759,-2.8727,-2.8801,-2.8771,-2.8793,-2.877,-2.8785,-2.8779,-2.8739,-2.8774,-2.8784,-2.8914,-2.8943,-2.8956,-2.8981,-2.8811,-2.8811,-2.8811,-2.8812,-2.892,-2.8962,-2.8909,-2.8962,-2.8928,-2.8973,-2.8955,-2.8926,-2.8963,-2.8903,-2.8927,-2.8863,-2.8979,-2.8999,-2.8817,-2.8816,-2.8816,-2.8815,-2.8815,-2.9043,-2.9057,-2.9055,-2.9083,-2.911,-2.9077,-2.9115,-2.9083,-2.9053,-2.9077,-2.9085,-2.9084,-2.9077,-2.9084,-2.9084,-2.9085,-2.9085,-2.9085,-2.9085,-2.9171,-2.9165,-2.9201,-2.9207,-2.9217,-2.9227,-2.9207,-2.9216,-2.9219,-2.9192,-2.9192,-2.9149,-2.8997,-2.8958,-2.9092,-2.9091,-2.909,-2.909,-2.9089,-2.9343,-2.9299,-2.9355,-2.9366,-2.9371,-2.9399,-2.9358,-2.9381,-2.9384,-2.9404,-2.9357,-2.925,-2.9227,-2.9213,-2.9181,-2.9364,-2.9364,-2.9364,-2.9364,-2.9446,-2.9432,-2.9481,-2.9501,-2.9516,-2.9485,-2.955,-2.9537,-2.9515,-2.9516,-2.9485,-2.944,-2.9428,-2.9411,-2.9393,-2.9363,-2.9589,-2.9589,-2.9589,-2.955,-2.9536,-2.9596,-2.9575,-2.9577,-2.958,-2.9641,-2.9665,-2.9632,-2.9598,-2.9515,-2.9506,-2.9433,-2.9411,-2.9372,-2.9345,-2.9288,0,0]},{"header":{"parameterUnit":"m.s-1","parameterCategory":1,"la1":30.2992,"la2":30.254,"lo1":-89.0895,"lo2":-89.0443,"dy":0.0025,"dx":0.0025,"nx":19,"ny":19,"refTime":"2026-05-19T03:00:00:Z","depth":0,"parameterNumber":3,"parameterNumberName":"V-component_of_WINDS"},"data":[0,0,0,1.9306,1.9307,1.9382,1.9382,1.946,1.946,0,0,0,0,0,0,0,0,0,0,0,1.9273,1.9273,1.9305,1.9307,1.9382,1.9382,1.946,1.946,0,0,0,0,0,0,0,0,0,0,0,1.9273,1.9273,1.9274,1.9307,1.9382,1.9382,1.946,1.9409,0,0,0,0,0,0,0,0,0,0,1.9339,1.93,1.9273,1.9274,1.9308,1.9382,1.9383,1.9407,1.9412,1.9418,0,1.9422,0,1.9443,1.9465,1.9465,0,0,0,1.9314,1.9295,1.9325,1.9274,1.9308,1.9382,1.935,1.941,1.9416,1.9425,1.9423,1.9427,1.9444,1.9465,1.9465,1.948,1.948,0,0,1.931,1.9281,1.9321,1.9328,1.9317,1.9348,1.9352,1.9414,1.9409,1.9424,1.9429,1.9445,1.9465,1.9466,1.948,1.948,0,0,0,1.9293,1.9277,1.9306,1.9325,1.934,1.935,1.9355,1.9407,1.9419,1.943,1.9446,1.9466,1.9466,1.948,1.948,1.9439,0,0,0,1.9291,1.9268,1.9304,1.9287,1.9338,1.9374,1.9346,1.9414,1.9422,1.9446,1.9466,1.9467,1.9481,1.948,1.9441,1.9425,0,0,0,1.9272,1.9266,1.9273,1.9285,1.9317,1.9374,1.939,1.9417,1.9432,1.9465,1.9467,1.9481,1.948,1.9443,1.9427,1.942,0,0,0,1.9242,1.9235,1.9272,1.927,1.9316,1.9349,1.939,1.9416,1.9439,1.9466,1.9481,1.948,1.9443,1.9429,1.9422,1.9409,1.9401,0,0,1.9216,1.923,1.9232,1.9268,1.9287,1.934,1.9353,1.9401,1.943,1.9461,1.9462,1.9441,1.9428,1.9421,1.9368,1.9361,0,0,0,1.9214,1.9214,1.9226,1.9248,1.9286,1.9317,1.9367,1.9385,1.9414,1.9441,1.9437,1.943,1.9428,1.9423,1.9417,1.9417,1.9477,1.9477,1.9477,1.9134,1.9174,1.9179,1.9228,1.9249,1.9302,1.9322,1.9355,1.9387,1.9386,1.9395,1.9358,1.9351,1.9348,1.9346,1.9392,1.9392,1.9391,1.9391,1.9101,1.9108,1.9153,1.9175,1.9216,1.9234,1.9285,1.9307,1.9329,1.9354,1.9353,1.9377,1.9339,1.934,1.9389,1.9389,1.9389,1.939,1.939,1.9053,1.9063,1.9087,1.9125,1.9149,1.9198,1.9218,1.9255,1.9289,1.9289,1.9303,1.9304,1.9309,1.9293,1.9293,1.9293,1.9293,1.9293,1.9293,1.8993,1.9022,1.9035,1.9076,1.9096,1.9127,1.9181,1.9201,1.9233,1.9258,1.9258,1.929,1.9329,1.9337,1.9291,1.9291,1.9292,1.9292,1.9292,1.8943,1.8961,1.8981,1.9002,1.9054,1.9076,1.9124,1.9162,1.9184,1.9193,1.9226,1.9248,1.9265,1.9269,1.9277,1.9218,1.9218,1.9218,1.9218,1.8903,1.8916,1.8946,1.8976,1.9009,1.9055,1.9076,1.9118,1.9164,1.918,1.9195,1.9208,1.9211,1.9225,1.9231,1.9238,1.9171,1.9171,1.9171,1.8874,1.8893,1.8904,1.8951,1.8995,1.9032,1.9054,1.9085,1.9141,1.917,1.9194,1.9196,1.9218,1.9223,1.925,1.9258,1.9272,0,0]}]]